Regional Weather Roundup
Issued by NWS

Home | Current Version | Previous Version | Text Only | Print | Product List | Glossary On
Versions: 1 2 3 4 5 6 7 8 9 10 11 12 13 14 15 16 17 18 19 20 21 22 23 24 25 26 27 28 29 30 31 32 33 34 35 36 37 38 39 40 41 42 43 44 45 46 47 48 49 50
000
ASUS42 KFFC 062210
RWRGA
WEATHER ROUNDUP FOR GEORGIA
NATIONAL WEATHER SERVICE PEACHTREE CITY GA
500 PM EST TUE DEC 06 2016

NOTE: "FAIR" INDICATES FEW OR NO CLOUDS BELOW 12,000 FEET WITH NO
SIGNIFICANT WEATHER AND/OR OBSTRUCTIONS TO VISIBILITY.

* = USE WITH CAUTION. THE STATIONS MARKED WITH AN ASTERISK MAY NOT
REPORT WEATHER SUCH AS PRECIPITATION, FOG, OR THUNDER AND ARE NOT
QUALITY CONTROLLED BY NWS.

THE REMARK "TC" DENOTES TEMPERATURE READING IN DEGREES CELSIUS.

GAZ001>058-062300-
NORTH GEORGIA

CITY           SKY/WX    TMP DP  RH WIND       PRES   REMARKS
ATLANTA        MOCLDY    61  56  83 W8        29.80R
ATHENS         CLOUDY    51  49  92 CALM      29.80R
CHAMBLEE       CLOUDY    55  52  89 N5        29.81R FOG
PEACHTREE CITY CLOUDY    63  55  75 W6        29.82R
ROME           CLOUDY    57  54  89 W9        29.83R FOG
WEST ATLANTA   CLOUDY    57  54  89 CALM      29.81R
GAINESVILLE    CLOUDY    49  49 100 CALM      29.82R
CARTERSVILLE   CLOUDY    57  53  86 VRB5      29.83R


CITY           SKY/WX    TMP DP  RH WIND       PRES   REMARKS
DALTON*        DRIZZLE   54  54 100 CALM      29.81R
LAWRENCEVILLE* CLOUDY    52  48  87 CALM      29.80R FOG
KENNESAW*      CLOUDY    54  52  94 CALM      29.84  FOG
CANTON*        CLOUDY    52  48  87 CALM      29.83R FOG
$$

GAZ059>098-102>109-062300-
CENTRAL GEORGIA

CITY           SKY/WX    TMP DP  RH WIND       PRES   REMARKS
AUGUSTA-BUSH   CLOUDY    57  53  86 N10       29.80R
AUGUSTA-DANIEL CLOUDY    53  50  89 N8        29.81R
COLUMBUS       CLOUDY    62  53  72 W14       29.83R
MACON          FAIR      69  54  58 W10       29.78R


CITY           SKY/WX    TMP DP  RH WIND       PRES   REMARKS
LAGRANGE*      CLOUDY    62  58  87 NW15      29.84R
SYLVANIA*      FAIR     N/A N/A N/A NW8       29.76R
MILLEDGEVILLE* FAIR      63  61  94 CALM      29.79R
$$

GAZ099>101-110>166-062300-
SOUTH GEORGIA

CITY           SKY/WX    TMP DP  RH WIND       PRES   REMARKS
SAVANNAH       FAIR      77  59  53 W12       29.73R
VALDOSTA       NOT AVBL
ST SIMONS      FAIR      77  58  51 W8        29.75R
ALBANY         FAIR      73  55  53 W10       29.84R
BRUNSWICK      FAIR      79  57  47 W10G17    29.76R


CITY           SKY/WX    TMP DP  RH WIND       PRES   REMARKS
BAINBRIDGE*    FAIR      72  57  60 W10       29.84R
MOULTRIE*      FAIR      72  55  56 W10       29.83R
VIDALIA*       FAIR      75  59  57 W10G17    29.77R
WAYCROSS*      FAIR      79  52  39 W10       29.78R
DOUGLAS*       FAIR      73  52  46 W8        29.80R
$$



USA.gov is the U.S. government's official web portal to all federal, state and local government web resources and services.